sat.trackr.live / text

‹ back to catalog

STARLINK-3828

NORAD 52469 · 2022-049U

PAYLOAD ACTIVE UNKNOWN

§ Identity

Operator
Country
US
Launch date
2022-05-06
Launch site
AFETR
Launch vehicle
Mass (kg)
RCS (m²)

Purposes: comms

External: N2YO · Heavens-Above · Gunter

§ Orbital elements

Epoch: 2026-09-19T17:27:10.093824Z

Period
93.90 min
Inclination
53.1593°
Eccentricity
0.0001165
Mean motion
15.33549794 rev/d
Perigee alt
464.4 km
Apogee alt
466.0 km
Semi-major
6,843.4 km
B*
2.2817e-5
RAAN
257.4422°
Arg perigee
92.7018°
Mean anomaly
267.4118°
Rev number
24,168

§ Raw data

STARLINK-38281 52469U 22049U   26262.72720016  .00000378  00000+0  22817-4 0  99972 52469  53.1593 257.4422 0001165  92.7018 267.4118 15.33549794241680

JSON: /api/v1/satellites/52469 · /tle

For live sub-satellite position, see the globe view (requires WebGL).

§ Visibility from observer

Set your observer location to see the next 7 days of passes ≥ 10°. The values pass through the URL so the page stays shareable.

No JS? Fill the form by hand. The geolocation button needs JavaScript.